Meteo Giornale » Osservazioni meteo Italia » Pisa-S Giusto

ore: 07:45 - Osservazioni Meteo Pisa-S Giusto
Lat. 43° 41' N Lon. 10° 23' E Alt. 2 metri s.l.m.

nuvoloso Europe/Rome

9 °C

Nuvoloso

Temp. 24 Ore

7 °C

22 °C

Nord

5.5 Km/h

Dew point 8 °C

Umidità 93 %

Visibilità  10 Km

Il sole sorge alle ore 06:08

Il sole tramonta alle ore 18:39

Data e Ora Cielo e Fenomeni T °C DP °C Um. % Pres. hPa Vis. km Vento km/h
Oggi h: 07:45 nuvoloso Nuvoloso 9 8 93 1020 10 N 5.5
Oggi h: 07:15 nuvoloso Nuvoloso 8 7 93 1020 10 N 1.8
Oggi h: 06:45 nuvoloso Nuvoloso 7 6 93 1020 10 N 3.7
Oggi h: 06:15 nuvoloso Nuvoloso 7 7 100 1020 10 N 5.5
Oggi h: 05:45 nuvoloso Nuvoloso 7 7 100 1020 10 S 7.4
Oggi h: 05:15 molto_nuvoloso Molto Nuvoloso 7 6 93 1021 10 SE 7.4
Oggi h: 04:45 nuvoloso Nuvoloso 7 7 100 1021 10 N 5.5
Oggi h: 04:15 poco_nuvoloso Poco Nuvoloso 8 8 100 1021 10 N/NO 7.4
Oggi h: 03:45 poco_nuvoloso Poco Nuvoloso 8 8 100 1021 10 N 5.5
Oggi h: 03:15 poco_nuvoloso Poco Nuvoloso 8 8 100 1021 10 O/NO 9.3
Oggi h: 03:45 poco_nuvoloso Poco Nuvoloso 8 8 100 1021 10 O/NO 9.3
Oggi h: 03:15 poco_nuvoloso Poco Nuvoloso 8 8 100 1020 10 O/SO 7.4
Oggi h: 01:45 poco_nuvoloso Poco Nuvoloso 8 8 100 1020 10 O/SO 7.4
Oggi h: 01:15 poco_nuvoloso Poco Nuvoloso 9 8 93 1021 10 N 5.5
Oggi h: 00:45 poco_nuvoloso Poco Nuvoloso 9 9 100 1021 10 SO 7.4
Oggi h: 00:15 nuvoloso Nuvoloso 10 9 93 1021 10 SO 7.4
Ieri h: 23:45 poco_nuvoloso Poco Nuvoloso 10 9 93 1021 10 O/NO 7.4
Ieri h: 23:15 nuvoloso Nuvoloso 11 9 87 1021 10 N/NO 13
Ieri h: 22:45 molto_nuvoloso Molto Nuvoloso 11 9 87 1021 10 NO 11.1
Ieri h: 22:15 coperto_pioggia Pioggia Debole 12 9 81 1021 10 O/NO 18.5
Ieri h: 21:45 coperto_pioggia Pioggia Debole 12 9 81 1022 10 O 24
Ieri h: 21:15 coperto_pioggia Pioggia Debole 12 8 76 1021 10 O/NO 18.5
Ieri h: 20:45 coperto_pioggia Pioggia Debole 12 9 81 1020 10 NO 20.3
Ieri h: 20:15 molto_nuvoloso Molto Nuvoloso 12 10 87 1020 10 O/NO 25.9
Ieri h: 19:45 molto_nuvoloso Molto Nuvoloso 12 9 81 1020 10 O/NO 22.2
Ieri h: 19:15 molto_nuvoloso Molto Nuvoloso 12 11 93 1020 10 O/NO 24
Ieri h: 18:45 molto_nuvoloso Molto Nuvoloso 14 11 82 1020 10 O/NO 27.8
Ieri h: 18:15 coperto_pioggia Pioggia Debole 15 13 87 1020 10 O 33.3
Ieri h: 17:45 coperto_pioggia Pioggia Debole 16 12 77 1019 10 O/SO 27.8
Ieri h: 17:15 coperto_pioggia Pioggia Debole 18 10 59 1018 10 SO 20.3
Ieri h: 16:45 molto_nuvoloso Molto Nuvoloso 18 10 59 1018 10 N 5.5
Ieri h: 16:15 molto_nuvoloso Molto Nuvoloso 18 10 59 1018 10 N 3.7
Ieri h: 15:45 molto_nuvoloso Molto Nuvoloso 18 10 59 1018 10 SO 9.3
Ieri h: 15:15 molto_nuvoloso Molto Nuvoloso 18 10 59 1018 10 SO 14.8
Ieri h: 14:45 molto_nuvoloso Molto Nuvoloso 19 10 55 1019 10 SO 18.5
Ieri h: 14:15 molto_nuvoloso Molto Nuvoloso 19 8 48 1019 10 SO 25.9
Ieri h: 13:45 nuvoloso Nuvoloso 20 7 42 1019 10 SO 24
Ieri h: 13:15 nuvoloso Nuvoloso 22 5 32 1020 10 SO 22.2
Ieri h: 12:45 nuvoloso Nuvoloso 22 6 35 1020 10 S/SE 11.1
Ieri h: 12:15 sereno Sereno 21 6 37 1020 10 E/SE 9.3
Ieri h: 11:45 sereno Sereno 21 6 37 1020 10 E/SE 16.7
Ieri h: 11:15 sereno Sereno 20 7 42 1021 10 E/SE 18.5
Ieri h: 10:45 sereno Sereno 19 8 48 1021 10 E/SE 20.3
Ieri h: 10:15 sereno Sereno 18 9 55 1021 10 E 20.3
Ieri h: 09:45 sereno Sereno 17 10 63 1021 10 E/SE 20.3
Ieri h: 09:15 sereno Sereno 15 11 76 1021 10 E/SE 18.5
Ieri h: 08:45 sereno Sereno 13 11 87 1021 10 E/SE 14.8